Location: Corralito
(10.2667°N, 66.9500°W)
Time: 19:33:28
(UTC+00:00)

SL-4 R/B - Visible Passes

Search period start: 17 May 2025 00:00
Search period end: 27 May 2025 00:00
Orbit: 394 x 551 km, 51.6° (Epoch: 16 May)

Date Brightness Start Highest point End Pass type
(mag) Time Alt. Az. Time Alt. Az. Time Alt. Az.
21 May 3.8 09:14:29 10° S 09:17:50 26° SE 09:21:02 10° ENE visible
22 May 4.0 08:44:43 12° S 08:47:20 21° SE 08:50:17 10° ENE visible
23 May 4.2 08:16:07 16° SE 08:16:50 17° SE 08:19:25 10° E visible
24 May 4.8 07:47:26 13° ESE 07:47:26 13° ESE 07:48:23 10° E visible
24 May 2.9 09:21:30 15° WSW 09:24:05 29° NW 09:27:27 10° N visible
25 May 2.6 08:52:42 33° W 08:53:31 37° NW 08:57:05 10° NNE visible
26 May 2.8 08:23:46 40° NNW 08:23:46 40° NNW 08:26:39 10° NNE visible
